Location: Hains Lake
(37.8540°N, 99.8578°W)
Time: 08:07:06
(UTC+00:00)

Vanguard 1 - Pass Details

Date: 21 April 2021
Orbit: 649 x 3834 km, 34.2° (Epoch: 04 May)

Event Time Altitude Azimuth Distance (km) Brightness Sun altitude
Rises 01:38:55 0° 284° (WNW) 7,283 17.4 -4.4°
Reaches altitude 10° 01:43:31 10° 281° (W) 6,524 16.0 -5.2°
Maximum altitude 02:05:27 57° 210° (SSW) 4,198 13.3 -9.2°
Drops below altitude 10° 02:25:06 10° 138° (SE) 5,901 13.4 -12.8°
Enters shadow 02:25:10 10° 138° (SE) 5,911 13.4 -12.8°
